Location: Dealu Mare
(46.0500°N, 22.8167°E)
Time: 08:51:54
(UTC+00:00)

Meteor 2-10 Rocket - Pass Details

Date: 15 January 2026
Orbit: 733 x 881 km, 81.2° (Epoch: 9 February)

Event Time Altitude Azimuth Distance (km) Brightness Sun altitude
Rises 03:43:18 0° 175° (S) 3,162 6.8 -24.4°
Reaches altitude 10° 03:45:38 10° 171° (S) 2,255 6.1 -24.0°
Maximum altitude 03:50:32 53° 95° (E) 933 4.2 -23.1°
Drops below altitude 10° 03:55:38 10° 20° (NNE) 2,346 6.1 -22.3°
Sets 03:58:06 0° 16° (NNE) 3,303 6.9 -21.8°
